Flight Track Log - Related Links

Times and Time Zones

All times are in EDT time to prevent confusion due to time zone crossing. See the SWA3321 flight status page for this flight to view local times or setup timezone preferences in your user account.

Time Position Orientation Groundspeed Altitude Reporting Facility
EDT Latitude Longitude Course Direction KTS MPH feet Rate Location/Type
Wed 02:54:10 PM 36.0769 -115.0828 90° East 183 211 3,900  Level Los Angeles Center
Wed 02:55:11 PM 36.0769 -115.0100 90° East 205 236 6,100 2,705 Climbing Los Angeles Center
Wed 02:56:12 PM 36.0242 -114.9300 129° Southeast 313 360 9,400 2,607 Climbing Los Angeles Center
Wed 02:57:13 PM 35.9347 -114.9358 183° South 371 427 11,400 2,667 Climbing Los Angeles Center
Wed 02:58:18 PM 35.8519 -115.0356 224° Southwest 386 444 15,000 3,118 Climbing Los Angeles Center
Wed 02:59:20 PM 35.8286 -115.1628 257° West 392 451 18,000 1,935 Climbing Los Angeles Center
Wed 03:00:22 PM 35.8397 -115.2947 276° West 386 444 19,000 774 Climbing Los Angeles Center
Wed 03:01:24 PM 35.8511 -115.4253 276° West 383 441 19,600 1,839 Climbing Los Angeles Center
Wed 03:02:26 PM 35.8622 -115.5639 276° West 381 438 22,800 1,824 Climbing Los Angeles Center
Wed 03:03:29 PM 35.8739 -115.7078 276° West 390 449 23,400 1,200 Climbing Los Angeles Center
Wed 03:04:31 PM 35.8839 -115.8278 276° West 399 459 25,300 1,839 Climbing Los Angeles Center
Wed 03:05:33 PM 35.9086 -115.9794 281° West 408 470 27,200 1,790 Climbing Los Angeles Center
Wed 03:06:35 PM 35.9894 -116.0778 315° West 410 472 29,000 2,081 Climbing Los Angeles Center
Wed 03:07:37 PM 36.0764 -116.1881 314° West 407 468 31,500 2,177 Climbing Los Angeles Center
Wed 03:08:39 PM 36.1469 -116.2731 316° Northwest 399 459 33,500 1,200 Climbing Los Angeles Center
Wed 03:09:42 PM 36.2394 -116.3881 315° West 395 455 34,000 240 Climbing Los Angeles Center
Wed 03:10:44 PM 36.3169 -116.4839 315° West 395 455 34,000  Level Los Angeles Center
Wed 03:11:46 PM 36.3956 -116.5806 315° West 398 458 34,000  Level Los Angeles Center
Wed 03:12:48 PM 36.4728 -116.6789 314° West 400 460 34,000  Level Los Angeles Center
Wed 03:13:50 PM 36.5617 -116.7906 315° West 399 459 34,000  Level Los Angeles Center
Wed 03:14:52 PM 36.6439 -116.8936 315° West 399 459 34,000  Level Los Angeles Center
Wed 03:15:54 PM 36.7219 -116.9914 315° West 399 459 34,000  Level Los Angeles Center
Wed 03:17:08 PM 36.7964 -117.0858 315° West 400 460 34,000  Level Los Angeles Center
Wed 03:18:11 PM 36.9053 -117.2269 314° West 403 464 34,000  Level Los Angeles Center
Wed 03:18:27 PM 36.9208 -117.2472 314° West 400 460 34,000  Level Oakland Center
Wed 03:19:29 PM 36.9986 -117.3464 314° West 400 460 34,000 683 Level Oakland Center
Wed 03:20:30 PM 37.0786 -117.4492 314° West 406 467 35,400 984 Climbing Oakland Center
Wed 03:21:31 PM 37.1564 -117.5489 314° West 401 461 36,000 293 Climbing Oakland Center
Wed 03:22:33 PM 37.2339 -117.6494 314° West 398 458 36,000  Level Oakland Center
Wed 03:23:34 PM 37.3128 -117.7511 314° West 403 464 36,000  Level Oakland Center
Wed 03:24:36 PM 37.3897 -117.8500 314° West 398 458 36,000  Level Oakland Center
Wed 03:25:37 PM 37.4831 -117.9717 314° West 400 460 36,000  Level Oakland Center
Wed 03:26:38 PM 37.5617 -118.0739 314° West 404 465 36,000  Level Oakland Center
Wed 03:27:40 PM 37.6400 -118.1781 314° West 408 470 36,000  Level Oakland Center
Wed 03:28:41 PM 37.7178 -118.2806 314° West 404 465 36,000  Level Oakland Center
Wed 03:29:42 PM 37.7961 -118.3836 314° West 405 466 36,000 -537 Level Oakland Center
Wed 03:30:44 PM 37.8736 -118.4842 314° West 400 460 34,900 -976 Descending Oakland Center
Wed 03:31:45 PM 37.9481 -118.5867 313° West 395 455 34,000 -934 Descending Oakland Center
Wed 03:32:46 PM 38.0256 -118.6886 314° West 399 459 33,000 -1,024 Descending Oakland Center
Wed 03:33:48 PM 38.1006 -118.7892 313° West 393 452 31,900 -1,073 Descending Oakland Center
Wed 03:34:49 PM 38.1792 -118.8936 314° West 388 447 30,800 -934 Descending Oakland Center
Wed 03:35:50 PM 38.2508 -118.9892 314° West 375 432 30,000 -393 Descending Oakland Center
Wed 03:36:51 PM 38.3208 -119.0897 312° West 378 435 30,000  Level Oakland Center
Wed 03:37:53 PM 38.3683 -119.2158 296° West 392 451 30,000 -293 Level Oakland Center
Wed 03:38:54 PM 38.4128 -119.3417 294° West 390 449 29,400 -787 Descending Oakland Center
Wed 03:39:55 PM 38.4567 -119.4614 295° West 379 436 28,400 -1,082 Descending Oakland Center
Wed 03:40:56 PM 38.5056 -119.6014 294° West 365 420 27,200 -1,073 Descending Oakland Center
Wed 03:41:58 PM 38.5483 -119.7172 295° West 361 415 26,200 -976 Descending Oakland Center
Wed 03:42:59 PM 38.5886 -119.8300 295° West 354 407 25,200 -984 Descending Oakland Center
Wed 03:44:00 PM 38.6278 -119.9428 294° West 348 400 24,200 -1,033 Descending Oakland Center
Wed 03:45:01 PM 38.6678 -120.0544 295° West 347 399 23,100 -1,024 Descending Oakland Center
Wed 03:46:03 PM 38.7064 -120.1647 294° West 342 394 22,100 -976 Descending Oakland Center
Wed 03:47:04 PM 38.7442 -120.2722 294° West 337 388 21,100 -984 Descending Oakland Center
Wed 03:48:05 PM 38.7819 -120.3794 294° West 332 382 20,100 -1,230 Descending Oakland Center
Wed 03:49:06 PM 38.8175 -120.4839 294° West 325 374 18,600 -1,366 Descending Oakland Center
Wed 03:50:08 PM 38.8394 -120.5889 285° West 315 362 17,300 -1,268 Descending Oakland Center
Wed 03:51:09 PM 38.8483 -120.7242 275° West 318 366 16,000 -1,328 Descending Oakland Center
Wed 03:52:10 PM 38.8556 -120.8369 275° West 319 367 14,600 -1,561 Descending Oakland Center
Wed 03:53:12 PM 38.8631 -120.9469 275° West 314 361 12,800 -1,659 Descending Oakland Center
Wed 03:54:13 PM 38.8706 -121.0572 275° West 313 360 11,200 -1,377 Descending Oakland Center
Wed 03:55:14 PM 38.8778 -121.1614 275° West 300 345 10,000 -1,350 Descending Oakland Center
Wed 03:55:33 PM 38.8833 -121.2000 280° West 284 327 9,400 -1,479 Descending Northern Cal TRACON
Wed 03:56:27 PM 38.8667 -121.2833 256° West 280 322 8,200 -1,368 Descending Northern Cal TRACON
Wed 03:57:27 PM 38.8667 -121.3833 270° West 276 318 6,800 -1,450 Descending Northern Cal TRACON
Wed 03:58:27 PM 38.8667 -121.4833 270° West 276 318 5,300 -1,050 Descending Northern Cal TRACON
Wed 03:59:27 PM 38.8500 -121.5833 258° West 263 303 4,700 -1,000 Descending Northern Cal TRACON
Wed 04:00:27 PM 38.8333 -121.6667 256° West 278 320 3,300 -850 Descending Northern Cal TRACON
Wed 04:01:27 PM 38.7500 -121.6833 189° South 266 306 3,000 -154 Descending Northern Cal TRACON
Wed 04:02:24 PM 38.6992 -121.6842 181° South 247 284 3,000 -102 Level Oakland Center
Wed 04:03:25 PM 38.6406 -121.6844 180° South 220 253 2,800 -639 Descending Oakland Center
Wed 04:04:26 PM 38.6206 -121.6358 118° Southeast 181 208 1,700 -1,033 Descending Oakland Center
Wed 04:05:27 PM 38.6500 -121.6000 44° Northeast 135 155 700 -793 Descending Northern Cal TRACON
Wed 04:06:27 PM 38.6833 -121.6000 360° North 136 157 100 -600 Descending Northern Cal TRACON

Login

Don't have an account? Register now (free) for customized features, flight alerts, and more!